This demonstration page uses our WeatherBlox Daily Observations layout. Learn more.

Left ArrowRight Arrow

41.12389, -100.76542

Hourly Observations for September 9, 2017

Temp ( °F °C ) Dew Point ( °F °C ) Humidity (%) Winds ( mph kmh ) Pressure ( in mb ) Visibility ( mi km ) Precip ( " mm )
12:53 am 00:53 Clear 61 16.1 55 12.8 81 81 ESE 8 13 29.98 1015 10 16 0.00 0.00
1:53 am 01:53 Clear 60 15.6 54 12.2 80 80 ESE 9 15 29.98 1015 10 16 0.00 0.00
2:53 am 02:53 Clear 59 15 53 11.7 81 81 ESE 8 13 29.97 1015 10 16 0.00 0.00
3:53 am 03:53 Clear 61 16.1 52 11.1 72 72 ESE 9 15 29.97 1015 10 16 0.00 0.00
4:53 am 04:53 Clear 61 16.1 52 11.1 72 72 ESE 8 13 29.97 1015 10 16 0.00 0.00
5:53 am 05:53 Clear 62 16.7 52 11.1 70 70 ESE 7 11 29.98 1015 10 16 0.00 0.00
6:49 am 06:49 Clear with Nearby Thunderstorms 64 18 52 11 64 64 ENE 6 9 30.00 1016 10 16 0.00 0.00
6:53 am 06:53 Mostly Clear with Thunderstorms 64 17.8 51 10.6 63 63 NNE 8 13 30.02 1017 10 16 0.00 0.00
7:28 am 07:28 Cloudy with Strong Thunderstorms 59 15 56 13.3 90 90 ESE 7 11 30.03 1017 2 3 0.13 3.30
7:34 am 07:34 Cloudy with Thunderstorms 58 14.4 56 13.3 93 93 ENE 10 17 30.06 1018 3 5 0.18 4.57
7:53 am 07:53 Cloudy with Nearby Thunderstorms 59 15 55 12.8 87 87 ESE 10 17 30.02 1017 10 16 0.21 5.33
8:53 am 08:53 Partly Cloudy with Nearby Thunderstorms 61 16.1 55 12.8 81 81 SSE 5 7 30.08 1019 10 16 0.00 0.03
9:05 am 09:05 Mostly Cloudy with Thunderstorms 60 15.6 57 13.9 90 90 N 8 13 30.09 1019 10 16 0.00 0.00
9:40 am 09:40 Windy with Storms Likely 60 15.6 55 12.8 84 84 SE 20 31 30.03 1017 7 11 0.10 2.54
9:53 am 09:53 Partly Cloudy with Thunderstorms 61 16.1 55 12.8 81 81 SE 16 26 30.06 1018 10 16 0.11 2.79
10:02 am 10:02 Sunny with Nearby Thunderstorms 61 16.1 55 12.8 81 81 SE 16 26 30.03 1017 10 16 0.00 0.00
10:12 am 10:12 Sunny 61 16.1 55 12.8 81 81 SE 16 26 30.03 1017 10 16 0.00 0.00
10:53 am 10:53 Sunny 61 16.1 56 13.3 84 84 SE 10 17 30.08 1019 10 16 0.00 0.00
11:53 am 11:53 Sunny 66 18.9 56 13.3 70 70 SE 13 20 30.05 1018 10 16 0.00 0.00
12:53 pm 12:53 Sunny 74 23.3 56 13.3 54 54 SSE 21 33 30.03 1017 10 16 0.00 0.00
1:53 pm 13:53 Sunny 77 25 57 13.9 50 50 SSE 21 33 30.00 1016 10 16 0.00 0.00
2:53 pm 14:53 Sunny 79 26.1 57 13.9 47 47 SSE 18 30 29.98 1015 10 16 0.00 0.00
3:53 pm 15:53 Sunny 79 26.1 57 13.9 47 47 SSE 15 24 29.96 1015 10 16 0.00 0.00
4:53 pm 16:53 Sunny 85 29.4 55 12.8 36 36 SE 17 28 29.93 1013 10 16 0.00 0.00
5:53 pm 17:53 Sunny 87 30.6 53 11.7 31 31 SSE 21 33 29.91 1013 10 16 0.00 0.00
6:53 pm 18:53 Sunny 82 27.8 55 12.8 40 40 SE 9 15 29.91 1013 10 16 0.00 0.00
7:53 pm 19:53 Sunny 75 23.9 57 13.9 54 54 ESE 7 11 29.94 1014 10 16 0.00 0.00
8:53 pm 20:53 Clear 72 22.2 55 12.8 55 55 ESE 9 15 29.95 1014 10 16 0.00 0.00
9:53 pm 21:53 Clear 71 21.7 54 12.2 55 55 E 10 17 29.98 1015 10 16 0.00 0.00
10:53 pm 22:53 Clear 73 22.8 51 10.6 46 46 ESE 12 19 29.98 1015 10 16 0.00 0.00
11:53 pm 23:53 Clear 70 21.1 51 10.6 51 51 ESE 10 17 29.98 1015 10 16 0.00 0.00

Powered by AerisWeather